Flag for U.S.A. Weather past 2 weeks in Lakeland, Florida, U.S.A.

Now
68 °F

Clear.


Feels Like: 68 °F
Forecast: 73 / 83 °F
Wind: N/A

Location: Lakeland Regional

Current Time: Jun 2, 2015 at 5:50:16 AM

Latest Report: Jun 2, 2015 at 5:15 AM


Visibility: 10 mi

Pressure: 30.01 "Hg

Humidity: 100%

Dew point: 68 °F

Location of LakelandLocation

Historic Weather in Lakeland — Graph

°F

Lakeland temperature yesterday

Maximum temperature yesterday: 91 °F (at 3:50 PM)
Minimum temperature yesterday: 70 °F (at 4:15 AM)
Average temperature yesterday: 75 °F

Past Weeks' High & Low Weather Summary

 TemperatureHumidityPressure
High93 °F (May 22, 3:50 PM)100% (May 20, 4:35 AM)30.24 "Hg (May 20, 4:35 AM)
Low64 °F (May 29, 4:15 AM)38% (May 27, 4:50 PM)29.93 "Hg (May 20, 5:50 PM)
Average77 °F77%30.10 "Hg
* Reported May 18 4:15 AM — Jun 2 4:15 AM, Lakeland, Weather by CustomWeather, © 2015

Note: Actual official high and low records may vary slightly from our data, if they occured in-between our weather recording intervals... More about our weather records

Advertising

Lakeland weather history for previous 24 hours

 ConditionsComfort  
Time TempWeatherWind HumidityBarometerVisibility
4:15 AM
Tue, Jun 2
70 °FFog.N/A100%30.01 "Hg5 mi
3:55 AM70 °FFog.3 mph100%30.00 "Hg5 mi
3:15 AM70 °FFog.5 mph100%30.01 "Hg1 mi
2:55 AM70 °FFog.N/A100%30.02 "Hg4 mi
2:15 AM70 °FPassing clouds.N/A100%30.03 "Hg7 mi
1:55 AM70 °FClear.N/A94%30.03 "Hg10 mi
1:35 AM68 °FClear.N/A100%30.03 "Hg10 mi
1:15 AM70 °FClear.N/A94%30.04 "Hg7 mi
12:55 AM68 °FClear.N/A100%30.04 "Hg7 mi
12:35 AM68 °FClear.No wind100%30.04 "Hg10 mi
12:15 AM70 °FClear.N/A94%30.05 "Hg10 mi
11:15 PM
Mon, Jun 1
70 °FLight rain. Passing clouds.No wind94%30.06 "Hg10 mi
10:55 PM70 °FLight rain. Clear.N/A94%30.07 "Hg10 mi
10:35 PM70 °FClear.N/A94%30.09 "Hg10 mi
10:15 PM70 °FLight rain. Passing clouds.No wind94%30.09 "Hg10 mi
9:50 PM70 °FLight rain. Passing clouds.3 mph94%30.09 "Hg10 mi
8:50 PM70 °FThunderstorms. More clouds than sun.16 mph94%30.08 "Hg5 mi
7:50 PM72 °FStrong thunderstorms. Mostly cloudy.25 mph94%30.06 "Hg3 mi
6:50 PM75 °FLight rain. Partly sunny.7 mph74%30.00 "Hg10 mi
5:50 PM90 °FThundershowers. Partly sunny.13 mph52%29.97 "Hg10 mi
4:50 PM90 °FScattered clouds.13 mph55%29.98 "Hg10 mi
3:50 PM91 °FPartly sunny.No wind49%29.99 "Hg12 mi
2:50 PM90 °FScattered clouds.5 mph52%30.02 "Hg12 mi
1:54 PM88 °FPartly sunny.6 mph55%30.05 "Hg12 mi
12:50 PM86 °FPartly sunny.No wind62%30.07 "Hg10 mi
11:50 AM82 °FPartly sunny.5 mph70%30.09 "Hg10 mi
10:50 AM82 °FPartly sunny.7 mph74%30.10 "Hg10 mi
9:50 AM81 °FPartly sunny.7 mph79%30.10 "Hg10 mi
8:50 AM77 °FPassing clouds.7 mph83%30.10 "Hg10 mi
7:50 AM73 °FSunny.No wind94%30.08 "Hg10 mi
6:50 AM70 °FPassing clouds.No wind100%30.06 "Hg10 mi
5:50 AM72 °FPassing clouds.No wind94%30.05 "Hg10 mi
5:35 AM70 °FClear.No wind94%30.05 "Hg10 mi
5:15 AM72 °FClear.3 mph94%30.05 "Hg10 mi
Weather by CustomWeather, © 2015

See weather overviewHow to use our weather pages